www.pogodaiklimat.ru

Погода и климат >> Архив погоды >> Беларусь >> Минск


АРХИВ ПОГОДЫ в Минске

Время (UTC), дата Ветер
(напр.,м/с)
 
Видим.   Явления Облачность Т
(С)
Тd
(С)
f
(%)
Тe
(С)
Тes
(С)
Комфортность P
(гПа)
Po
(гПа)
Тmin
(С)
Tmax
(С)
R
(мм)
R24
(мм)
S
(см)
09 12.03 З 4 25 км 8/8 930 м
[Sc]
-0.7 -8.2 57 -6 -5 по сезону 1010.0 981.3
12 12.03 З 4
{10}
18 км слаб. ливневой снег 8/8 900 м
[Cb cap Ac trans]
-0.1 -7.1 59 -5 -4 прохладно 1010.9 982.3
15 12.03 СЗ 5
{11}
20 км {ливн. осадки} 8/5 960 м
[Sc Ac trans]
+0.2 -8.3 53 -5 -5 прохладно 1011.5 982.9
18 12.03 З 2 25 км {ливн. осадки} ясно -1.5 -7.0 66 -5 -5 по сезону 1012.6 983.8 +0.5 0.0
21 12.03 З 2 20 км ясно -2.7 -6.0 78 -7 -7 прохладно 1013.5 984.5
00 13.03 З 1 20 км ясно -3.6 -7.4 75 -6 -6 по сезону 1014.1 985.0
03 13.03 СЗ 1 15 км ясно -4.5 -6.3 87 -7 -7 по сезону 1013.6 984.4
06 13.03 Ю 2 16 км 3/0
[Ac trans]
-2.6 -5.6 80 -7 -5 по сезону 1013.2 984.2 -4.8
09 13.03 ЮЗ 3 17 км 3/3 600 м
[Sc]
+2.1 -3.0 69 -2 +2 по сезону 1012.5 984.1
12 13.03 ЮЗ 5 20 км 8/4 1000 м
[Sc Ci fib]
+4.7 -4.6 51 +1 +2 по сезону 1011.1 982.9
15 13.03 Ю 4
{10}
20 км 9/0
[Ac trans]
+4.0 -5.0 52 0 0 по сезону 1010.1 981.9
18 13.03 Ю 3 16 км 10/0
[Ac trans]
+3.1 -5.3 54 -0 -0 по сезону 1009.7 981.4 +5.3
21 13.03 ЮЗ 4 3400 м снег {дождь} 10/10 360 м
[Sc]
+1.4 -1.3 82 -4 -4 по сезону 1009.6 981.2
00 14.03 Ю 1 18 км {снег, дождь} 10/10 600 м
[Sc]
+0.8 -0.5 91 -1 -1 по сезону 1009.2 980.7
03 14.03 штиль 0 6000 м дымка 6/0
[Ac trans]
-1.4 -2.1 95 -3 -3 по сезону 1008.9 980.2
06 14.03 Ю 2 12 км 8/0
[Ac trans Ci fib]
+0.5 -1.1 89 -3 -2 по сезону 1008.5 980.0 -2.1 0.7 0
09 14.03 Ю 3 15 км 6/0
[Ci fib]
+5.2 +0.4 71 +2 +7 тепло 1007.1 979.1
12 14.03 Ю 6 16 км 8/3 900 м
[Sc Ci fib]
+6.3 -0.4 62 +2 +3 по сезону 1005.5 977.7
15 14.03 Ю 5
{10}
15 км в посл. час дождь 9/6 720 м
[Sc Ac trans]
+5.2 +1.1 75 +1 +1 по сезону 1004.6 976.7
18 14.03 Ю 4 14 км {дождь} 9/9 800 м
[Sc]
+3.4 +1.4 87 -1 -1 по сезону 1004.2 976.4 +6.5 0.0
21 14.03 Ю 3 15 км 10/10 300 м
[Sc]
+2.9 +0.8 86 -1 -1 по сезону 1004.2 976.0
00 15.03 Ю 3 18 км 10/10 240 м
[Sc]
+2.3 +0.7 89 -2 -2 по сезону 1003.7 975.5
03 15.03 Ю 3 10 км 10/10 300 м
[Sc]
+2.3 +1.0 91 -2 -2 по сезону 1003.4 975.2
06 15.03 Ю 3 8000 м дымка 10/10 270 м
[Sc]
+2.1 +0.9 92 -2 -2 по сезону 1003.7 975.5 +2.0
09 15.03 ЮВ 3 25 км 8/8 570 м
[Sc Ac trans]
+4.8 +1.2 77 +1 +3 по сезону 1003.1 975.2
12 15.03 Ю 4 20 км 8/6 1170 м
[Sc Ac trans]
+8.2 +0.4 58 +5 +6 тепло 1001.1 973.6
15 15.03 Ю 2
{12}
12 км в посл. час дождь 9/9 1230 м
[Sc]
+6.1 +1.6 73 +4 +4 тепло 1000.6 972.9
18 15.03 Ю 5
{10}
10 км слаб. дождь 10/10 630 м
[Sc]
+4.3 +2.2 86 -1 -1 по сезону 999.7 971.9 +8.7 0.7
21 15.03 Ю 4
{10}
14 км слаб. дождь 10/10 360 м
[Frnb]
+3.4 +2.4 93 -1 -1 по сезону 997.7 969.8
00 16.03 Ю 3 10 км слаб. дождь 10/10 300 м
[Frnb]
+3.9 +3.0 94 -0 -0 по сезону 995.3 967.5
03 16.03 Ю 4 12 км слаб. дождь 10/10 240 м
[Frnb]
+3.7 +2.8 94 -1 -1 по сезону 992.1 964.4
06 16.03 ЮВ 4 8000 м дождь 10/10 300 м
[Frnb]
+2.2 +1.3 94 -3 -3 по сезону 989.7 961.9 +2.1 7
09 16.03 Ю 3 10 км слаб. дождь 10/10 240 м
[Frnb]
+1.7 +1.0 95 -3 -3 по сезону 990.1 962.3
12 16.03 10 км {снег, дождь} н/о +5.5 +2.3 80 +3 +4 по сезону 990.8 963.3
15 16.03 Ю 2 10 км {ливн. осадки} 8/6 1300 м
[Sc Ac trans]
+4.5 +3.0 90 +2 +2 по сезону 993.1 965.5
18 16.03 З 3 10 км слаб. дождь 10/10 360 м
[Frnb]
+2.5 +1.6 94 -2 -2 по сезону 996.5 968.6 +5.8 9
21 16.03 З 2 10 км слаб. ливневой дождь 10/10 210 м
[Frnb]
+2.0 +1.4 96 -1 -1 по сезону 999.5 971.4
00 17.03 СЗ 4 10 км слаб. дождь 10/10 210 м
[Frnb]
+2.3 +2.6 100 -3 -3 по сезону 1002.5 974.4
03 17.03 СЗ 2 10 км {дождь} 10/10 270 м
[Sc]
+1.2 +0.5 95 -2 -2 по сезону 1005.0 976.7
06 17.03 З 2 10 км {дождь} 10/10 600 м
[Sc]
+0.6 -1.0 89 -3 -3 по сезону 1007.1 978.7 +0.5 0.4
09 17.03 ЮЗ 3 20 км 10/10 540 м
[Sc]
+2.1 -1.0 80 -2 -2 по сезону 1008.3 980.0
12 17.03 Ю 3 18 км 8/8 720 м
[Sc]
+5.6 +0.6 70 +3 +4 по сезону 1007.6 979.7
15 17.03 Ю 4 15 км 10/10 700 м
[Sc]
+6.3 +1.6 72 +3 +3 по сезону 1007.4 979.5
18 17.03 Ю 3 18 км в посл. час ливневой дождь 10/8 600 м
[Sc Ac trans]
+5.5 +2.3 80 +2 +2 по сезону 1007.9 979.9 +6.5 0.0
21 17.03 Ю 2 15 км {дождь} 10/0
[Ac trans]
+5.1 +2.6 84 +3 +3 тепло 1007.7 979.7
00 18.03 Ю 3 17 км {дождь} 8/0
[Ci fib]
+5.3 +2.5 82 +2 +2 тепло 1006.8 978.9
03 18.03 Ю 3 14 км ясно +4.7 +2.2 84 +1 +1 тепло 1006.2 978.2
06 18.03 Ю 3 16 км 8/0
[Ci fib]
+4.6 +2.1 84 +1 +2 тепло 1006.5 978.5 +4.0 0.5
09 18.03 ЮЗ 4 13 км {ливн. осадки} 10/10 500 м
[Sc]
+7.3 +3.5 77 +4 +4 тепло 1006.8 979.1
12 18.03 З 2 14 км {ливн. осадки} 10/10 400 м
[Sc]
+6.4 +4.4 87 +4 +4 по сезону 1009.9 982.0
15 18.03 ЮЗ 1 15 км 10/6 600 м
[Sc Ac trans]
+6.5 +3.8 83 +5 +6 тепло 1011.3 983.3
18 18.03 З 2 15 км 8/0
[Ac trans]
+6.1 +2.6 78 +4 +4 тепло 1013.0 984.9 +7.9 0.8
21 18.03 ЮЗ 2 17 км 8/0
[Ac trans]
+5.6 +2.4 80 +3 +3 тепло 1013.9 985.8
00 19.03 ЮЗ 2 15 км 8/6 1200 м
[Sc Ac trans]
+5.3 +2.3 81 +3 +3 тепло 1014.8 986.6
03 19.03 ЮЗ 2 12 км 10/0
[Ac trans]
+4.1 +2.0 86 +1 +1 тепло 1015.5 987.2
06 19.03 ЮЗ 4 18 км 3/0
[Ac trans]
+4.6 +0.4 74 +1 +2 тепло 1016.6 988.3 +3.4

 

Местоположение метеостанции Минск (город Минск, Беларусь): широта 53.96 долгота 27.70 высота над уровнем моря 231 м.

В архиве по умолчанию представлена погода в Минске за последнюю неделю. Архивные данные за месяц целиком и за предыдущие месяцы, начиная с января 2011 года, Вы можете получить, выбрав интересующий диапазон дат из раскрывающегося списка и нажав кнопку "Ввод!".


*Определитесь, кто Вы:
робот инопланетянин человек

Внимание! Время в таблицах - всемирное. Для получения местного времени необходимо прибавить поправку, которая равна 3 ч.

Смотрите также архив погоды в соседних городах и на ближайших метеорологических станциях:

Погода в Борисове (Минская область, Беларусь) (63 км)
Погода в Марьиной Горке (Минская область, Беларусь) (63 км)
Погода в Вилейке (Минская область, Беларусь) (77 км)
Погода в Воложине (Минская область, Беларусь) (78 км)
Погода в Столбцах (Минская область, Беларусь) (83 км)
Погода в Березино (Минская область, Беларусь) (86 км)
Погода в Березинском Заповеднике (Минская область, Беларусь) (95 км)
Погода в Докшицах (Витебская область, Беларусь) (102 км)
Погода в Слуцке (Минская область, Беларусь) (104 км)
Погода в Кличеве (Могилевская область, Беларусь) (118 км)

Пояснения к столбцам:

Ветер - указаны скорость ветра в м/с - средняя за 10 мин, порывы в срок и между сроками (в фигурных скобках) и направление, откуда дует ветер: С - северный, СВ - северо-восточный, В - восточный, ЮВ - юго-восточный, Ю - южный, ЮЗ - юго-западный, З - западный, СЗ - северо-западный.
Видимость - горизонтальная дальность видимости в метрах или километрах. При видимости от 1 до 10 км при отсутствии осадков обычно наблюдается дымка, при ухудшении видимости до 1 км и менее - туман. В сухую погоду видимость может ухудшаться дымом, пылью или мглою.
Явления - указаны атмосферные явления, наблюдавшиеся в срок или в последний час перед сроком; фигурными скобками обозначены явления, наблюдавшиеся между сроками (за 1-3 часа до срока); квадратными скобками обозначены град или гололедные отложения с указанием их диаметра в мм.
Облачность - указаны через наклонную черту общая и нижняя облачность в баллах и высота нижней границы облаков в метрах; квадратными скобками обозначены формы облаков: Ci - перистые, Cs - перисто-слоистые, Cc - перисто-кучевые, Ac - высококучевые, As - высокослоистые, Sc - слоисто-кучевые, Ns - слоисто-дождевые, Cu - кучевые, Cb - кучево-дождевые. Подробнее классификацию облаков см. в Атласе облаков (PDF).
T - Температура воздуха - температура, измеренная на высоте 2 м над землей.
Td - Температура точки росы - температура, при понижении до которой содержащийся в воздухе водяной пар достигнет насыщения.
f - Относительная влажность воздуха - влажноcть воздуха, измеренная на высоте 2 м над землей.
Te - Эффективная температура - температура, которую ощущает одетый по сезону человек в тени. Характеристика душности погоды. При расчете учитывается влияние влажности воздуха и скорости ветра на теплоощущения человека.
Tes - Эффективная температура на солнце - температура, которую ощущает человек, с поправкой на солнечный нагрев. Характеристика знойности погоды. Зависит от высоты солнца над горизонтом, облачности и скорости ветра. Ночью, в пасмурную погоду, а также при ветре 12 м/с и более поправка равна нулю.
P - Атмосферное давление - приведенное к уровню моря атмосферное давление.
Po - Атмосферное давление - измеренное на уровне метеостанции атмосферное давление.
Tmin - Минимальная температура - минимум температуры воздуха на высоте 2 м над землей.
Tmax - Максимальная температура - максимум температуры воздуха на высоте 2 м над землей.
R - Количество осадков - Количество выпавших осадков за период времени, мм. При наведении курсора мыши на число - период времени, за который выпало указанное количество осадков.
R24 - Количество осадков - Количество выпавших осадков за 24 часа, мм.
S - Снежный покров - Высота снежного покрова, см. При наведении курсора мыши на число - состояние снежного покрова и степень покрытия местности в баллах.